Overview Statistics Trail Chart Weather Telemetry Raw packets
 

This is the latest recevied weather packets stored in our database for station/object KC4GS-13. If no packets are shown the sender has not sent any weather packets the latest 10 day(s).

<< 110 111 112 113 114 >>
Time Temp. Humidity Pressure Rain* Wind** Luminosity Snow
1787785759 24.44° C 96% 1016.4 hPa 0 mm - 24 W/m² -
1787785454 24.44° C 95% 1016.3 hPa 0 mm - 23 W/m² -
1787785155 24.44° C 95% 1016.4 hPa 0 mm - 29 W/m² -
1787784849 25° C 95% 1016.3 hPa 0 mm - 37 W/m² -
1787784547 25° C 94% 1016.4 hPa 0 mm - 34 W/m² -
1787784241 25° C 94% 1016.4 hPa 0 mm - 49 W/m² -
1787783936 25° C 93% 1016.5 hPa 3.05 mm - 55 W/m² -
1787783633 25° C 92% 1016.4 hPa 10.67 mm - 64 W/m² -
1787783332 26.11° C 90% 1016.7 hPa 13.72 mm - 93 W/m² -
1787783028 26.67° C 88% 1016.9 hPa 8.89 mm - 50 W/m² -
1787782726 27.78° C 84% 1016.9 hPa 6.1 mm - 39 W/m² -
1787782423 28.33° C 78% 1016.7 hPa 0 mm - 38 W/m² -
1787782118 28.33° C 76% 1016.4 hPa 0 mm - 40 W/m² -
1787781813 28.89° C 74% 1016 hPa 0 mm - 39 W/m² -
1787781511 29.44° C 71% 1016.1 hPa 0 mm - 41 W/m² -
1787781211 30.56° C 69% 1016 hPa 0 mm - 36 W/m² -
1787780909 32.22° C 62% 1015.9 hPa 0 mm - 38 W/m² -
1787780604 32.22° C 57% 1015.6 hPa 0 mm - 52 W/m² -
1787780299 32.22° C 56% 1015.5 hPa 0 mm - 74 W/m² -
1787779995 32.78° C 56% 1015.4 hPa 0 mm - 73 W/m² -
1787779689 32.78° C 55% 1015.5 hPa 0 mm - 82 W/m² -
1787779388 32.78° C 55% 1015.5 hPa 0 mm - 92 W/m² -
1787779083 32.78° C 56% 1015.6 hPa 0 mm - 104 W/m² -
1787778778 32.78° C 55% 1015.6 hPa 0 mm - 114 W/m² -
1787778474 33.33° C 55% 1015.7 hPa 0 mm - 192 W/m² -

* Rain latest hour (hover to see other rain measurements)
** Current wind speed in m/s (hover to see current wind gust speed)